Weather History for YBHM - July, 2013

Change the Weather History Date:

Saturday, July 13, 2013

  Actual Average Record
Temperature  
Mean Temperature 67 °F -  
Max Temperature 70 °F - - ()
Min Temperature 64 °F - - ()
Cooling Degree Days 2    
Growing Degree Days 17 (Base 50)    
Moisture  
Dew Point 62 °F    
Average Humidity 81    
Maximum Humidity 94    
Minimum Humidity 68    
Precipitation  
Precipitation 0.08 in - - ()
Sea Level Pressure  
Sea Level Pressure 30.14 in    
Wind  
Wind Speed 26 mph ()    
Max Wind Speed 49 mph    
Max Gust Speed 46 mph    
T = Trace of Precipitation, MM = Missing Value Source: Averaged Metar Reports

Daily Weather History Graph

Daily Weather History Graph

Search for Another Location

Airport or City:

Trip Planner

Search our weather history database for the weather conditions in past years. The results will help you decide how hot, cold, wet, or windy it might be!

Date:

Astronomy

Jul. 13, 2013 Rise Set
Actual Time 6:40 AM AEST 5:39 PM AEST
Civil Twilight 6:16 AM AEST 6:03 PM AEST
Nautical Twilight 5:49 AM AEST 6:30 PM AEST
Astronomical Twilight 5:22 AM AEST 6:57 PM AEST
Moon 9:35 AM AEST (7/13) 9:52 PM AEST (7/13)
Length of Visible Light 11h 47m
Length of Day
10h 59m
Waxing Crescent, 20% of the Moon is Illuminated
Jul 13
Waxing Crescent
Jul 16
First Quarter
Jul 23
Full
Jul 30
Last Quarter
Aug 7
New

Hourly Weather History & Observations

Time (AEST) Temp. Dew Point Humidity Pressure Visibility Wind Dir Wind Speed Gust Speed Precip Events Conditions
12:00 AM 68 °F 62 °F 75% 30.17 in - SE 47.0 mph - -  
12:00 AM 68.0 °F 62.6 °F 83% 30.15 in - SE 24.2 mph - N/A   Unknown
12:30 AM 68.0 °F 60.8 °F 78% 30.15 in - SE 24.2 mph - N/A   Unknown
1:00 AM 68.0 °F 60.8 °F 78% 30.15 in - ESE 25.3 mph - N/A   Unknown
1:30 AM 68.0 °F 60.8 °F 78% 30.15 in - SE 25.3 mph - N/A   Unknown
2:00 AM 68.0 °F 60.8 °F 78% 30.12 in - ESE 24.2 mph - N/A   Unknown
2:30 AM 68.0 °F 60.8 °F 78% 30.12 in - ESE 26.5 mph - N/A   Unknown
3:00 AM 68 °F 61 °F 73% 30.13 in - SE 40.3 mph - -  
3:00 AM 68.0 °F 60.8 °F 78% 30.12 in - SE 20.7 mph - N/A   Unknown
3:30 AM 68.0 °F 62.6 °F 83% 30.12 in - SE 20.7 mph - N/A   Unknown
4:00 AM 66.2 °F 62.6 °F 88% 30.12 in - SSE 19.6 mph - N/A   Unknown
4:30 AM 68.0 °F 64.4 °F 88% 30.12 in - SE 20.7 mph - N/A   Unknown
5:00 AM 68.0 °F 62.6 °F 83% 30.12 in - SE 20.7 mph - N/A   Unknown
5:30 AM 69.8 °F 62.6 °F 78% 30.12 in - ESE 26.5 mph - N/A   Unknown
6:00 AM 69 °F 62 °F 71% 30.15 in - SE 47.0 mph - -  
6:05 AM 68.0 °F 62.6 °F 83% 30.15 in - ESE 25.3 mph 38.0 mph N/A   Unknown
6:30 AM 64.4 °F 62.6 °F 94% 30.15 in - ESE 27.6 mph - N/A   Unknown
7:00 AM 66.2 °F 62.6 °F 88% 30.15 in - ESE 20.7 mph - N/A   Unknown
7:09 AM 66.2 °F 60.8 °F 83% 30.15 in - ESE 26.5 mph 38.0 mph N/A   Unknown
7:11 AM 66.2 °F 60.8 °F 83% 30.15 in - East 39.1 mph - N/A   Unknown
7:30 AM 68.0 °F 60.8 °F 78% 30.15 in - ESE 28.8 mph - N/A   Unknown
8:00 AM 68.0 °F 64.4 °F 88% 30.18 in - East 21.9 mph - N/A   Unknown
8:26 AM 68.0 °F 62.6 °F 83% 30.18 in - ESE 24.2 mph 35.7 mph N/A   Unknown
8:30 AM 66.2 °F 60.8 °F 83% 30.18 in - ESE 26.5 mph - N/A   Unknown
9:00 AM 70 °F 63 °F 73% 30.19 in - ESE 21.9 mph - -  
9:00 AM 69.8 °F 62.6 °F 78% 30.18 in - ESE 21.9 mph - N/A   Unknown
9:30 AM 69.8 °F 64.4 °F 83% 30.18 in - East 20.7 mph - N/A   Unknown
9:42 AM 68.0 °F 62.6 °F 83% 30.18 in - ESE 20.7 mph 35.7 mph N/A   Unknown
10:00 AM 68.0 °F 62.6 °F 83% 30.18 in - East 23.0 mph - N/A   Unknown
10:25 AM 69.8 °F 62.6 °F 78% 30.18 in - ESE 21.9 mph - N/A   Unknown
10:30 AM 69.8 °F 62.6 °F 78% 30.18 in - ESE 20.7 mph - N/A   Unknown
10:51 AM 69.8 °F 64.4 °F 83% 30.18 in - ESE 21.9 mph 36.8 mph N/A   Unknown
11:00 AM 66.2 °F 62.6 °F 88% 30.18 in - ESE 32.2 mph - N/A   Unknown
11:30 AM 68.0 °F 64.4 °F 88% 30.18 in - ESE 33.4 mph - N/A   Unknown
12:00 PM 69 °F 63 °F 76% 30.17 in - SE 26.5 mph - -  
12:00 PM 69.8 °F 62.6 °F 78% 30.15 in - SE 26.5 mph - N/A   Unknown
12:30 PM 69.8 °F 62.6 °F 78% 30.15 in - ESE 26.5 mph - N/A   Unknown
1:00 PM 69.8 °F 60.8 °F 73% 30.15 in - ESE 21.9 mph - N/A   Unknown
1:30 PM 69.8 °F 62.6 °F 78% 30.12 in - ESE 20.7 mph - N/A   Unknown
2:00 PM 69.8 °F 62.6 °F 78% 30.12 in - ESE 26.5 mph - N/A   Unknown
2:37 PM 69.8 °F 60.8 °F 73% 30.09 in - SE 24.2 mph 42.6 mph N/A   Unknown
2:39 PM 66.2 °F 59.0 °F 78% 30.09 in - ESE 39.1 mph - N/A   Unknown
2:48 PM 66.2 °F 62.6 °F 88% 30.12 in - ESE 25.3 mph 42.6 mph N/A   Unknown
3:00 PM 67 °F 62 °F 80% 30.12 in - SE 20.7 mph - -  
3:00 PM 66.2 °F 62.6 °F 88% 30.12 in - SE 20.7 mph - N/A   Unknown
3:30 PM 68.0 °F 64.4 °F 88% 30.12 in - SE 25.3 mph - N/A   Unknown
3:45 PM 66.2 °F 60.8 °F 83% 30.09 in - East 31.1 mph - N/A   Unknown
4:00 PM 66.2 °F 62.6 °F 88% 30.12 in - East 25.3 mph - N/A   Unknown
4:30 PM 68.0 °F 62.6 °F 83% 30.12 in - ESE 23.0 mph - N/A   Unknown
4:43 PM 68.0 °F 62.6 °F 83% 30.12 in - ESE 26.5 mph 38.0 mph N/A   Unknown
5:00 PM 66.2 °F 62.6 °F 88% 30.12 in - East 32.2 mph - N/A   Unknown
5:30 PM 68.0 °F 62.6 °F 83% 30.12 in - East 23.0 mph - N/A   Unknown
6:00 PM 69 °F 62 °F 72% 30.14 in - ESE 24.2 mph - -  
6:00 PM 68.0 °F 62.6 °F 83% 30.12 in - ESE 24.2 mph - N/A   Unknown
6:30 PM 68.0 °F 60.8 °F 78% 30.12 in - ESE 21.9 mph - N/A   Unknown
7:00 PM 68.0 °F 60.8 °F 78% 30.12 in - SE 25.3 mph - N/A   Unknown
7:30 PM 68.0 °F 62.6 °F 83% 30.15 in - ESE 24.2 mph - N/A   Unknown
8:04 PM 68.0 °F 62.6 °F 83% 30.15 in - East 28.8 mph - N/A   Unknown
8:22 PM 68.0 °F 60.8 °F 78% 30.15 in - ESE 27.6 mph 46.0 mph N/A   Unknown
8:23 PM 66.2 °F 60.8 °F 83% 30.15 in - ESE 41.4 mph - N/A   Unknown
8:27 PM 64.4 °F 59.0 °F 83% 30.15 in - ESE 27.6 mph 46.0 mph N/A   Unknown
8:30 PM 64.4 °F 60.8 °F 88% 30.15 in - ESE 24.2 mph 46.0 mph N/A   Unknown
9:00 PM 69 °F 61 °F 70% 30.17 in - ESE 49.2 mph - -  
9:00 PM 68.0 °F 60.8 °F 78% 30.15 in - ESE 25.3 mph - N/A   Unknown
9:20 PM 68.0 °F 62.6 °F 83% 30.15 in - ESE 36.8 mph - N/A   Unknown
9:30 PM 66.2 °F 62.6 °F 88% 30.15 in - ESE 32.2 mph - N/A   Unknown
10:00 PM 68.0 °F 59.0 °F 73% 30.15 in - ESE 32.2 mph - N/A   Unknown
10:30 PM 68.0 °F 60.8 °F 78% 30.15 in - ESE 21.9 mph - N/A   Unknown
11:00 PM 68.0 °F 59.0 °F 73% 30.15 in - ESE 27.6 mph - N/A   Unknown
11:30 PM 68.0 °F 57.2 °F 68% 30.15 in - ESE 26.5 mph - N/A   Unknown